CW8248 Weather Reports


time (UTC)temp
F
wind
direction
speed
knots
gust
knots
rain 1hr
in
rain 24hr
in
rain mn
in
humidity
%
barometer
mb
20260503193038 81 154 1.7 6.1 0.00 0.00 0.00 30 1011.9
20260503192532 81 169 3.5 6.1 0.00 0.00 0.00 35 1012.0
20260503192033 80 191 2.6 5.2 0.00 0.00 0.00 31 1012.0
20260503191531 81 196 2.6 3.5 0.00 0.00 0.00 36 1012.1
20260503191030 80 186 1.7 4.3 0.00 0.00 0.00 42 1012.2
20260503190530 78 186 1.7 4.3 0.00 0.00 0.00 37 1012.2
20260503190036 77 186 1.7 4.3 0.00 0.00 0.00 41 1012.3
20260503185528 77 186 0.9 3.5 0.00 0.00 0.00 36 1012.4
20260503185027 79 215 1.7 3.5 0.00 0.00 0.00 35 1012.5
20260503184525 76 191 1.7 2.6 0.00 0.00 0.00 41 1012.6
20260503184022 75 167 0.9 2.6 0.00 0.00 0.00 43 1012.6
20260503183521 75 166 1.7 2.6 0.00 0.00 0.00 44 1012.7
20260503183019 74 164 0.9 3.5 0.00 0.00 0.00 42 1012.8
20260503182518 74 164 0.9 4.3 0.00 0.00 0.00 45 1012.8
20260503182017 75 168 2.6 4.3 0.00 0.00 0.00 44 1012.9
20260503181515 72 171 1.7 3.5 0.00 0.00 0.00 44 1012.9
20260503181014 71 175 0.9 2.6 0.00 0.00 0.00 42 1013.0
20260503180513 72 175 0.9 2.6 0.00 0.00 0.00 50 1013.0
20260503180013 70 175 0.9 2.6 0.00 0.00 0.00 49 1013.1
20260503175509 70 175 0.9 2.6 0.00 0.00 0.00 47 1013.2
20260503175008 70 175 0.9 3.5 0.00 0.00 0.00 53 1013.2
20260503174506 70 174 0.9 3.5 0.00 0.00 0.00 47 1013.2
20260503174005 69 174 1.7 3.5 0.00 0.00 0.00 52 1013.4
20260503173505 68 177 0.9 2.6 0.00 0.00 0.00 53 1013.4
20260503173005 68 177 0.9 3.5 0.00 0.00 0.00 50 1013.5
20260503172504 67 177 1.7 3.5 0.00 0.00 0.00 55 1013.5
20260503172004 66 169 0.9 4.3 0.00 0.00 0.00 55 1013.6
20260503171503 67 168 1.7 4.3 0.00 0.00 0.00 56 1013.6
20260503171001 66 169 1.7 5.2 0.00 0.00 0.00 56 1013.5
20260503170601 66 169 1.7 5.2 0.00 0.00 0.00 55 1013.6
20260503150532 58 83 0.9 4.3 0.00 0.00 0.00 66 1014.3
20260503131011 51 49 0.0 3.5 0.00 0.00 0.00 72 1014.0
20260503130513 51 38 0.9 5.2 0.00 0.00 0.00 72 1014.0
20260503110501 52 18 0.0 1.7 0.00 0.00 0.00 73 1013.8
20260503100109 52 2 0.9 1.7 0.00 0.00 0.00 76 1013.7
20260503081555 55 27 0.0 1.7 0.00 0.00 0.00 75 1013.3
20260503081044 55 27 0.9 3.5 0.00 0.00 0.00 75 1013.3
20260503080544 55 357 1.7 3.5 0.00 0.00 0.00 76 1013.2
20260503072539 56 29 0.9 1.7 0.00 0.00 0.00 75 1013.4
20260503072038 57 29 0.9 1.7 0.00 0.00 0.00 74 1013.4
20260503071537 57 29 0.9 1.7 0.00 0.00 0.00 74 1013.3
20260503071036 57 29 0.9 1.7 0.00 0.00 0.00 74 1013.3
20260503070536 57 29 0.9 1.7 0.00 0.00 0.00 75 1013.4
20260503055033 58 5 0.9 3.5 0.00 0.00 0.00 74 1013.1
20260503054552 58 5 0.9 3.5 0.00 0.00 0.00 74 1013.1
20260503054033 58 25 0.0 0.9 0.00 0.00 0.00 73 1013.1
20260503053533 59 25 0.0 0.9 0.00 0.00 0.00 73 1013.1
20260503053039 59 25 0.0 1.7 0.00 0.00 0.00 71 1013.1
20260503052534 60 25 0.0 1.7 0.00 0.00 0.00 71 1013.2
20260503052032 60 52 0.9 3.5 0.00 0.00 0.00 71 1013.2
20260503051533 59 52 0.0 3.5 0.00 0.00 0.00 72 1013.2
20260503051034 59 12 0.9 1.7 0.00 0.00 0.00 74 1013.1
20260503050532 59 12 0.0 1.7 0.00 0.00 0.00 74 1013.1
20260503050033 59 12 0.0 1.7 0.00 0.00 0.00 74 1013.0
20260503045532 59 12 0.0 2.6 0.00 0.00 0.00 73 1012.9
20260503045032 59 12 0.0 1.7 0.00 0.00 0.00 74 1012.9
20260503044531 59 12 0.0 1.7 0.00 0.00 0.00 73 1012.9
20260503044031 59 12 0.0 3.5 0.00 0.00 0.00 73 1012.9
20260503043531 59 12 0.0 3.5 0.00 0.00 0.00 73 1012.9
20260503043031 59 12 0.0 1.7 0.00 0.00 0.00 73 1012.8
20260503042531 60 12 0.9 3.5 0.00 0.00 0.00 72 1012.7
20260503042031 60 12 0.9 3.5 0.00 0.00 0.00 72 1012.7
20260503041531 61 48 0.9 3.5 0.00 0.00 0.00 72 1012.6
20260503041033 61 91 0.0 3.5 0.00 0.00 0.00 72 1012.6
20260503040530 61 271 0.0 3.5 0.00 0.00 0.00 72 1012.6
20260503040036 61 271 0.9 3.5 0.00 0.00 0.00 72 1012.5
20260503035530 61 262 0.0 1.7 0.00 0.00 0.00 73 1012.4
20260503035030 61 262 0.0 7.0 0.00 0.00 0.00 71 1012.4
20260503034530 62 252 0.0 7.0 0.00 0.00 0.00 69 1012.2
20260503034031 62 320 0.0 4.3 0.00 0.00 0.00 70 1012.1
20260503033530 62 254 0.0 4.3 0.00 0.00 0.00 70 1011.9
20260503033031 62 265 0.0 3.5 0.00 0.00 0.00 70 1011.7
20260503032529 62 191 0.9 4.3 0.00 0.00 0.00 70 1011.5
20260503032029 63 271 0.0 4.3 0.00 0.00 0.00 69 1011.4
20260503031529 63 271 0.0 0.9 0.00 0.00 0.00 68 1011.3
20260503031029 63 271 0.0 0.9 0.00 0.00 0.00 67 1011.2
20260503030532 63 271 0.0 1.7 0.00 0.00 0.00 69 1011.2
20260503030029 63 271 0.0 1.7 0.00 0.00 0.00 70 1011.1
20260503025528 63 271 0.0 0.9 0.00 0.00 0.00 69 1011.0
20260503025028 64 271 0.0 1.7 0.00 0.00 0.00 68 1011.0
20260503024528 64 271 0.0 1.7 0.00 0.00 0.00 66 1011.0
20260503024028 64 271 0.0 0.9 0.00 0.00 0.00 66 1010.9
20260503023527 64 271 0.0 0.9 0.00 0.00 0.00 68 1010.9
20260503023026 65 271 0.0 1.7 0.00 0.00 0.00 66 1010.8
20260503022527 65 271 0.0 1.7 0.00 0.00 0.00 64 1010.8
20260503022027 65 271 0.0 1.7 0.00 0.00 0.00 62 1010.8
20260503021527 66 271 0.0 1.7 0.00 0.00 0.00 60 1010.7
20260503021027 66 271 0.0 0.0 0.00 0.00 0.00 61 1010.7
20260503020527 66 271 0.0 0.0 0.00 0.00 0.00 62 1010.6
20260503020027 66 271 0.0 0.9 0.00 0.00 0.00 61 1010.6
20260503015527 66 271 0.0 0.9 0.00 0.00 0.00 62 1010.5
20260503015030 66 271 0.0 0.9 0.00 0.00 0.00 62 1010.5
20260503014526 66 271 0.0 1.7 0.00 0.00 0.00 58 1010.5
20260503014026 66 271 0.0 1.7 0.00 0.00 0.00 57 1010.5
20260503013526 67 271 0.0 0.9 0.00 0.00 0.00 59 1010.5
20260503013026 67 271 0.0 1.7 0.00 0.00 0.00 58 1010.5
20260503012526 67 271 0.0 1.7 0.00 0.00 0.00 58 1010.5
20260503012026 67 271 0.0 0.9 0.00 0.00 0.00 55 1010.5
20260503011526 67 271 0.0 1.7 0.00 0.00 0.00 57 1010.5
20260503011025 67 271 0.0 1.7 0.00 0.00 0.00 55 1010.5
20260503010528 68 271 0.0 1.7 0.00 0.00 0.00 54 1010.6
20260503010029 68 271 0.9 2.6 0.00 0.00 0.00 55 1010.6
20260503005525 68 271 0.9 2.6 0.00 0.00 0.00 54 1010.6
20260503005028 68 271 0.0 7.0 0.00 0.00 0.00 54 1010.6
20260503004523 68 271 1.7 7.0 0.00 0.00 0.00 53 1010.6
20260503004023 68 265 0.0 1.7 0.00 0.00 0.00 54 1010.6
20260503003523 69 265 0.9 1.7 0.00 0.00 0.00 53 1010.5
20260503003026 69 265 0.0 2.6 0.00 0.00 0.00 56 1010.5
20260503002523 69 265 0.9 2.6 0.00 0.00 0.00 54 1010.6
20260503002023 70 265 0.9 2.6 0.00 0.00 0.00 56 1010.5
20260503001523 69 265 0.9 3.5 0.00 0.00 0.00 54 1010.5
20260503001022 69 265 0.9 3.5 0.00 0.00 0.00 53 1010.4
20260503000521 69 265 1.7 3.5 0.00 0.00 0.00 54 1010.5
20260503000021 70 265 0.9 3.5 0.00 0.00 0.00 53 1010.5
20260502235521 70 265 0.9 4.3 0.00 0.00 0.00 52 1010.6
20260502235020 70 265 1.7 4.3 0.00 0.00 0.00 51 1010.7
20260502234524 71 265 0.0 2.6 0.00 0.00 0.00 49 1010.8
20260502234021 71 265 0.9 6.1 0.00 0.00 0.00 54 1010.9
20260502233517 70 265 1.7 6.1 0.00 0.00 0.00 52 1010.9
20260502233017 71 260 1.7 4.3 0.00 0.00 0.00 49 1011.0
20260502232517 71 260 1.7 4.3 0.00 0.00 0.00 50 1010.9
20260502232017 70 260 1.7 4.3 0.00 0.00 0.00 52 1011.0
20260502231520 70 257 1.7 3.5 0.00 0.00 0.00 52 1011.2
20260502231016 70 257 1.7 4.3 0.00 0.00 0.00 53 1011.2
20260502230516 70 257 1.7 4.3 0.00 0.00 0.00 51 1011.3
20260502230016 70 257 1.7 3.5 0.00 0.00 0.00 55 1011.3
20260502225516 71 258 1.7 3.5 0.00 0.00 0.00 53 1011.3
20260502225014 71 254 1.7 5.2 0.00 0.00 0.00 54 1011.4
20260502224513 71 254 1.7 5.2 0.00 0.00 0.00 52 1011.5
20260502224012 70 236 1.7 7.0 0.00 0.00 0.00 52 1011.6
20260502223511 71 231 1.7 7.0 0.00 0.00 0.00 50 1011.8
20260502223011 71 252 2.6 6.1 0.00 0.00 0.00 50 1011.9
20260502222509 71 245 2.6 5.2 0.00 0.00 0.00 51 1012.0
20260502222009 71 245 2.6 6.1 0.00 0.00 0.00 51 1012.0
20260502221509 71 247 1.7 5.2 0.00 0.00 0.00 56 1012.1
20260502221009 70 248 1.7 6.1 0.00 0.00 0.00 56 1012.2
20260502220507 70 263 3.5 6.1 0.00 0.00 0.00 54 1012.3
20260502220011 70 242 1.7 6.1 0.00 0.00 0.00 53 1012.4
20260502215507 71 248 2.6 6.1 0.00 0.00 0.00 55 1012.5
20260502215007 73 248 2.6 5.2 0.00 0.00 0.00 47 1012.5
20260502214513 73 248 1.7 4.3 0.00 0.00 0.00 58 1012.5
20260502214004 71 248 1.7 7.0 0.00 0.00 0.00 58 1012.6
20260502213504 68 248 1.7 9.6 0.00 0.00 0.00 59 1012.7
20260502213004 68 243 5.2 12.2 0.00 0.00 0.00 57 1012.8
20260502212504 69 252 5.2 9.6 0.00 0.00 0.00 56 1012.7
20260502212003 66 219 0.0 1.7 0.00 0.00 0.00 64 1012.8
20260502211505 66 219 0.0 7.0 0.00 0.00 0.00 59 1013.0
20260502211001 66 239 3.5 7.0 0.00 0.00 0.00 59 1013.1
20260502210501 65 253 4.3 7.0 0.00 0.00 0.00 60 1013.1
20260502210004 65 266 3.5 11.3 0.00 0.00 0.00 58 1013.1
20260502205502 69 250 7.0 11.3 0.00 0.00 0.00 51 1013.1
20260502205100 70 239 3.5 4.3 0.00 0.00 0.00 54 1013.0
20260502204618 70 241 3.5 4.3 0.00 0.00 0.00 58 1013.1
20260502204101 69 175 0.9 3.5 0.00 0.00 0.00 56 1013.3
20260502203600 69 191 1.7 3.5 0.00 0.00 0.00 58 1013.4
20260502203059 68 196 0.9 5.2 0.00 0.00 0.00 55 1013.5
20260502202559 73 196 2.6 5.2 0.00 0.00 0.00 51 1013.6
20260502202056 69 186 0.9 3.5 0.00 0.00 0.00 58 1013.6
20260502201556 67 196 0.0 3.5 0.00 0.00 0.00 63 1013.6
20260502201056 64 212 0.0 5.2 0.00 0.00 0.00 55 1013.6
20260502200555 67 212 4.3 5.2 0.00 0.00 0.00 57 1013.8
20260502200056 66 228 2.6 4.3 0.00 0.00 0.00 67 1013.6
20260502195552 61 235 0.0 7.8 0.00 0.00 0.00 69 1013.4
20260502195052 60 252 2.6 7.8 0.00 0.00 0.00 68 1013.4
20260502194552 61 208 1.7 7.8 0.00 0.00 0.00 68 1013.4
20260502194052 60 51 0.9 7.8 0.00 0.00 0.00 70 1013.2
20260502193549 59 60 0.9 4.3 0.00 0.00 0.00 73 1013.6